THA971 LSZH-VTBS

Flight info

Callsign THA971
Flight time N/A
Altitude 33000
Route DEGES Z2 UMVEG DCT DIMLO DCT INVED DCT SOKRU DCT DINRO DCT UDROS UM859 KARDE UL851 TBN UM11 REBLO M11 MATAL/N0487F350 M11 LUSAL N701 LARGI B701 TUGTA A909 LEMOD N644 DI A466 SULOM M890 LKN R460 BBN/N0497F370 R460 CEA L507 IGONI DCT WILLA WILLA1C
Aircraft B77W/H-SDE1E2E3FGHIJ2J3J4J5M1RWXY/LB1D1

Departure

Time N/A
Airport Zürich Airport (LSZH)

Arrival

Time 2026-05-06 09:06
Airport Suvarnabhumi Airport (VTBS)
Time Latitude Longitude Altitude Speed Heading
2026-05-06 08:03 18.53029 94.79803 34918 ft 503 kts 126°
2026-05-06 08:03 18.51044 94.82839 34903 ft 503 kts 126°
2026-05-06 08:04 18.47082 94.88885 34867 ft 503 kts 126°
2026-05-06 08:04 18.43084 94.94971 34822 ft 504 kts 126°
2026-05-06 08:05 18.39102 95.01025 34788 ft 502 kts 126°
2026-05-06 08:05 18.35137 95.07044 34777 ft 503 kts 126°
2026-05-06 08:06 18.31149 95.13092 34771 ft 503 kts 126°
2026-05-06 08:06 18.27048 95.19074 34766 ft 502 kts 128°
2026-05-06 08:07 18.22863 95.24942 34751 ft 501 kts 128°
2026-05-06 08:07 18.18705 95.30782 34749 ft 502 kts 128°
2026-05-06 08:08 18.14522 95.36658 34754 ft 503 kts 128°
2026-05-06 08:08 18.10342 95.42532 34752 ft 501 kts 128°
2026-05-06 08:09 18.06155 95.48413 34755 ft 502 kts 128°
2026-05-06 08:09 18.01982 95.54272 34752 ft 502 kts 128°
2026-05-06 08:10 17.97799 95.60139 34754 ft 503 kts 128°
2026-05-06 08:10 17.93606 95.66015 34744 ft 503 kts 128°
2026-05-06 08:11 17.89401 95.71903 34735 ft 502 kts 128°
2026-05-06 08:11 17.85226 95.77745 34733 ft 503 kts 128°
2026-05-06 08:12 17.81034 95.83606 34745 ft 502 kts 128°
2026-05-06 08:12 17.76836 95.89469 34745 ft 503 kts 128°
2026-05-06 08:13 17.72630 95.95338 34744 ft 502 kts 128°
2026-05-06 08:13 17.68407 96.01226 34745 ft 504 kts 128°
2026-05-06 08:14 17.64214 96.07066 34747 ft 502 kts 128°
2026-05-06 08:14 17.59996 96.12938 34750 ft 503 kts 128°
2026-05-06 08:15 17.55830 96.18731 34752 ft 501 kts 128°
2026-05-06 08:15 17.51619 96.24582 34760 ft 501 kts 128°
2026-05-06 08:16 17.47414 96.30419 34767 ft 501 kts 128°
2026-05-06 08:16 17.43219 96.36237 34766 ft 503 kts 128°
2026-05-06 08:17 17.39012 96.42067 34765 ft 503 kts 127°
2026-05-06 08:17 17.34803 96.47896 34763 ft 502 kts 127°
2026-05-06 08:18 17.30594 96.53705 34760 ft 501 kts 128°
2026-05-06 08:18 17.26341 96.59460 34756 ft 500 kts 128°
2026-05-06 08:19 17.22085 96.65213 34759 ft 500 kts 128°
2026-05-06 08:19 17.17823 96.70972 34754 ft 500 kts 128°
2026-05-06 08:20 17.13583 96.76698 34758 ft 501 kts 128°
2026-05-06 08:20 17.09315 96.82459 34758 ft 500 kts 128°
2026-05-06 08:21 17.05057 96.88203 34763 ft 501 kts 128°
2026-05-06 08:21 17.00776 96.93971 34771 ft 501 kts 128°
2026-05-06 08:22 16.96520 96.99702 34786 ft 500 kts 128°
2026-05-06 08:22 16.92258 97.05437 34794 ft 501 kts 128°
2026-05-06 08:23 16.88000 97.11162 34783 ft 498 kts 128°
2026-05-06 08:23 16.83716 97.16917 34771 ft 500 kts 128°
2026-05-06 08:24 16.79476 97.22607 34775 ft 501 kts 128°
2026-05-06 08:24 16.75210 97.28328 34772 ft 499 kts 128°
2026-05-06 08:25 16.70938 97.34053 34777 ft 500 kts 128°
2026-05-06 08:25 16.66662 97.39777 34781 ft 499 kts 128°
2026-05-06 08:26 16.62399 97.45480 34774 ft 498 kts 128°
2026-05-06 08:26 16.58133 97.51183 34781 ft 498 kts 128°
2026-05-06 08:27 16.53873 97.56873 34774 ft 498 kts 128°
2026-05-06 08:27 16.49582 97.62599 34777 ft 498 kts 128°
2026-05-06 08:28 16.45333 97.68265 34773 ft 499 kts 128°
2026-05-06 08:28 16.41055 97.73965 34766 ft 497 kts 128°
2026-05-06 08:29 16.36663 97.79579 34767 ft 495 kts 135°
2026-05-06 08:29 16.31521 97.84377 34760 ft 496 kts 139°
2026-05-06 08:30 16.26324 97.89062 34752 ft 496 kts 139°
2026-05-06 08:30 16.21079 97.93784 34758 ft 498 kts 139°
2026-05-06 08:31 16.15855 97.98483 34754 ft 497 kts 139°
2026-05-06 08:31 16.10625 98.03182 34756 ft 497 kts 139°
2026-05-06 08:32 16.05384 98.07889 34763 ft 495 kts 139°
2026-05-06 08:32 16.00170 98.12566 34786 ft 494 kts 139°
2026-05-06 08:33 15.94964 98.17234 34790 ft 495 kts 139°
2026-05-06 08:33 15.89724 98.21928 34803 ft 495 kts 139°
2026-05-06 08:34 15.81905 98.28928 34797 ft 494 kts 139°
2026-05-06 08:35 15.76685 98.33597 34795 ft 495 kts 139°
2026-05-06 08:35 15.71452 98.38274 34812 ft 495 kts 139°
2026-05-06 08:36 15.66259 98.42911 34839 ft 493 kts 139°
2026-05-06 08:36 15.61032 98.47575 34878 ft 493 kts 139°
2026-05-06 08:37 15.55861 98.52187 34910 ft 494 kts 139°
2026-05-06 08:37 15.50642 98.56839 34935 ft 492 kts 139°
2026-05-06 08:38 15.45863 98.61929 34946 ft 491 kts 128°
2026-05-06 08:38 15.41558 98.67430 34944 ft 491 kts 128°
2026-05-06 08:39 15.37253 98.72936 34965 ft 490 kts 128°
2026-05-06 08:39 15.32943 98.78442 34985 ft 490 kts 128°
2026-05-06 08:40 15.28658 98.83910 34995 ft 489 kts 128°
2026-05-06 08:40 15.24378 98.89368 34995 ft 489 kts 128°
2026-05-06 08:41 15.20052 98.94881 34979 ft 489 kts 128°
2026-05-06 08:41 15.15771 99.00330 34958 ft 490 kts 128°
2026-05-06 08:42 15.11493 99.05773 34952 ft 488 kts 128°
2026-05-06 08:42 15.07171 99.11268 34951 ft 490 kts 128°
2026-05-06 08:43 15.02897 99.16697 34966 ft 490 kts 128°
2026-05-06 08:43 14.98600 99.22153 34976 ft 488 kts 128°
2026-05-06 08:44 14.94307 99.27598 34960 ft 488 kts 128°
2026-05-06 08:44 14.92168 99.30310 34566 ft 482 kts 128°
2026-05-06 08:44 14.90055 99.32989 33573 ft 486 kts 128°
2026-05-06 08:44 14.87871 99.35757 32618 ft 489 kts 128°
2026-05-06 08:45 14.85733 99.38464 31817 ft 490 kts 128°
2026-05-06 08:45 14.83578 99.41193 30965 ft 492 kts 128°
2026-05-06 08:45 14.81423 99.43921 30256 ft 490 kts 128°
2026-05-06 08:45 14.79262 99.46655 29768 ft 483 kts 128°
2026-05-06 08:46 14.77152 99.49323 29243 ft 478 kts 128°
2026-05-06 08:46 14.75075 99.51950 28697 ft 474 kts 128°
2026-05-06 08:46 14.72991 99.54584 28138 ft 470 kts 128°
2026-05-06 08:46 14.70928 99.57190 27585 ft 467 kts 128°
2026-05-06 08:47 14.68886 99.59769 27025 ft 464 kts 128°
2026-05-06 08:47 14.66849 99.62343 26454 ft 461 kts 128°
2026-05-06 08:47 14.64826 99.64896 25892 ft 458 kts 128°
2026-05-06 08:47 14.62806 99.67446 25316 ft 455 kts 128°
2026-05-06 08:48 14.60831 99.69938 24760 ft 452 kts 128°
2026-05-06 08:48 14.58839 99.72450 24194 ft 449 kts 128°
2026-05-06 08:48 14.56887 99.74911 23634 ft 446 kts 128°
2026-05-06 08:48 14.54925 99.77384 23058 ft 443 kts 128°
2026-05-06 08:49 14.52978 99.79837 22492 ft 439 kts 128°
2026-05-06 08:49 14.51057 99.82256 21933 ft 436 kts 128°
2026-05-06 08:49 14.49128 99.84686 21375 ft 433 kts 128°
2026-05-06 08:49 14.47231 99.87073 20815 ft 430 kts 128°
2026-05-06 08:50 14.45473 99.89522 20242 ft 426 kts 120°
2026-05-06 08:50 14.44147 99.92236 19681 ft 422 kts 110°
2026-05-06 08:50 14.43266 99.95108 19131 ft 418 kts 104°
2026-05-06 08:50 14.42520 99.97980 18565 ft 416 kts 104°
2026-05-06 08:51 14.41783 100.00870 18000 ft 413 kts 104°
2026-05-06 08:51 14.41072 100.03672 17751 ft 401 kts 104°
2026-05-06 08:51 14.40378 100.06422 17649 ft 387 kts 103°
2026-05-06 08:51 14.39574 100.09018 17564 ft 391 kts 112°
2026-05-06 08:52 14.38349 100.11592 17563 ft 400 kts 116°
2026-05-06 08:52 14.37050 100.14158 17525 ft 402 kts 116°
2026-05-06 08:52 14.35762 100.16695 17212 ft 402 kts 116°
2026-05-06 08:52 14.34462 100.19257 16702 ft 400 kts 116°
2026-05-06 08:53 14.33185 100.21771 16170 ft 397 kts 116°
2026-05-06 08:53 14.31901 100.24299 15635 ft 395 kts 116°
2026-05-06 08:53 14.30638 100.26785 15086 ft 393 kts 117°
2026-05-06 08:53 14.29382 100.29255 14550 ft 390 kts 117°
2026-05-06 08:54 14.28109 100.31760 13982 ft 389 kts 117°
2026-05-06 08:54 14.26860 100.34216 13322 ft 390 kts 117°
2026-05-06 08:54 14.25607 100.36678 12738 ft 388 kts 117°
2026-05-06 08:54 14.24343 100.39163 12169 ft 386 kts 117°
2026-05-06 08:55 14.23113 100.41579 11620 ft 383 kts 117°
2026-05-06 08:55 14.21869 100.44023 11072 ft 380 kts 116°
2026-05-06 08:55 14.20647 100.46421 10567 ft 377 kts 116°
2026-05-06 08:55 14.19459 100.48754 10415 ft 362 kts 116°
2026-05-06 08:56 14.18306 100.51015 10284 ft 349 kts 116°
2026-05-06 08:56 14.17201 100.53181 10162 ft 336 kts 116°
2026-05-06 08:56 14.16130 100.55280 10057 ft 325 kts 116°
2026-05-06 08:56 14.15079 100.57340 9664 ft 324 kts 116°
2026-05-06 08:57 14.14044 100.59371 9461 ft 315 kts 116°
2026-05-06 08:57 14.13046 100.61326 9413 ft 299 kts 115°
2026-05-06 08:57 14.12103 100.63172 9159 ft 287 kts 115°
2026-05-06 08:57 14.11179 100.64983 8635 ft 285 kts 115°
2026-05-06 08:58 14.10265 100.66777 8077 ft 285 kts 116°
2026-05-06 08:58 14.09341 100.68589 7565 ft 283 kts 116°
2026-05-06 08:58 14.08431 100.70375 7100 ft 278 kts 116°
2026-05-06 08:58 14.07547 100.72108 6754 ft 271 kts 116°
2026-05-06 08:59 14.06661 100.73846 6446 ft 277 kts 116°
2026-05-06 08:59 14.05775 100.75584 6170 ft 277 kts 116°
2026-05-06 08:59 14.04875 100.77350 5837 ft 276 kts 116°
2026-05-06 08:59 14.04002 100.79061 5716 ft 267 kts 117°
2026-05-06 09:00 14.02843 100.80502 5635 ft 258 kts 142°
2026-05-06 09:00 14.01271 100.81310 5526 ft 250 kts 166°
2026-05-06 09:00 13.99517 100.81405 5245 ft 253 kts 184°
2026-05-06 09:00 13.97765 100.81108 4941 ft 256 kts 191°
2026-05-06 09:01 13.96003 100.80679 4583 ft 259 kts 193°
2026-05-06 09:01 13.94251 100.80221 4257 ft 260 kts 193°
2026-05-06 09:01 13.92501 100.79759 3985 ft 258 kts 193°
2026-05-06 09:01 13.90788 100.79307 3896 ft 248 kts 193°
2026-05-06 09:02 13.89154 100.78876 3826 ft 237 kts 193°
2026-05-06 09:02 13.87568 100.78458 3803 ft 227 kts 193°
2026-05-06 09:02 13.86043 100.78057 3523 ft 228 kts 193°
2026-05-06 09:02 13.84490 100.77649 3164 ft 227 kts 193°
2026-05-06 09:03 13.83022 100.77262 2829 ft 207 kts 194°
2026-05-06 09:03 13.81672 100.76907 2496 ft 197 kts 194°
2026-05-06 09:03 13.80365 100.76563 2166 ft 187 kts 194°
2026-05-06 09:03 13.79168 100.76249 1934 ft 163 kts 194°
2026-05-06 09:04 13.78124 100.75974 1659 ft 148 kts 193°
2026-05-06 09:04 13.77142 100.75717 1423 ft 141 kts 194°
2026-05-06 09:04 13.76180 100.75465 1230 ft 141 kts 194°
2026-05-06 09:04 13.75223 100.75212 1042 ft 142 kts 195°
2026-05-06 09:05 13.74273 100.74963 855 ft 142 kts 195°
2026-05-06 09:05 13.73310 100.74710 660 ft 139 kts 195°
2026-05-06 09:05 13.72369 100.74468 480 ft 139 kts 195°
2026-05-06 09:05 13.71433 100.74219 321 ft 139 kts 196°
2026-05-06 09:06 13.70483 100.73969 144 ft 139 kts 195°
2026-05-06 09:06 13.69543 100.73724 23 ft 133 kts 196°
2026-05-06 09:06 13.68749 100.73511 21 ft 100 kts 194°
2026-05-06 09:06 13.68232 100.73375 21 ft 48 kts 195°
2026-05-06 09:07 13.67999 100.73355 21 ft 27 kts 167°
2026-05-06 09:07 13.67860 100.73397 21 ft 13 kts 160°
2026-05-06 09:07 13.67769 100.73421 21 ft 12 kts 169°
2026-05-06 09:07 13.67683 100.73420 21 ft 12 kts 191°
2026-05-06 09:08 13.67612 100.73415 21 ft 8 kts 150°
2026-05-06 09:08 13.67587 100.73470 21 ft 8 kts 105°
2026-05-06 09:08 13.67571 100.73530 21 ft 8 kts 105°
2026-05-06 09:08 13.67556 100.73590 21 ft 8 kts 104°
2026-05-06 09:09 13.67537 100.73667 21 ft 13 kts 104°
2026-05-06 09:09 13.67537 100.73755 21 ft 12 kts 52°
2026-05-06 09:09 13.67614 100.73784 21 ft 11 kts 14°
2026-05-06 09:09 13.67692 100.73804 21 ft 11 kts 15°
2026-05-06 09:10 13.67769 100.73826 21 ft 11 kts 14°
2026-05-06 09:10 13.67843 100.73845 21 ft 10 kts 14°
2026-05-06 09:10 13.67915 100.73864 21 ft 10 kts 14°
2026-05-06 09:10 13.67986 100.73882 21 ft 10 kts 14°
2026-05-06 09:11 13.68055 100.73901 21 ft 10 kts 14°
2026-05-06 09:11 13.68125 100.73919 21 ft 11 kts 14°
2026-05-06 09:11 13.68221 100.73946 21 ft 17 kts 14°
2026-05-06 09:11 13.68345 100.73976 21 ft 17 kts 14°
2026-05-06 09:12 13.68461 100.74007 21 ft 16 kts 16°
2026-05-06 09:12 13.68493 100.74075 21 ft 11 kts 95°
2026-05-06 09:12 13.68536 100.74124 21 ft 10 kts 17°
2026-05-06 09:12 13.68584 100.74165 21 ft 9 kts 84°
2026-05-06 09:13 13.68572 100.74233 21 ft 9 kts 105°
2026-05-06 09:13 13.68556 100.74297 21 ft 9 kts 105°
2026-05-06 09:13 13.68539 100.74361 21 ft 9 kts 104°
2026-05-06 09:13 13.68510 100.74399 21 ft 6 kts 168°
2026-05-06 09:14 13.68463 100.74390 21 ft 6 kts 194°
2026-05-06 09:14 13.68443 100.74384 21 ft 0 kts 194°
2026-05-06 09:14 13.68441 100.74384 21 ft 0 kts 194°
2026-05-06 09:14 13.68438 100.74383 21 ft 0 kts 194°